| time (UTC) | temp F | wind direction | speed MPH | gust MPH | rain 1hr in | rain 24hr in | rain mn in | humidity % | barometer mb |
| 20260831221604 | 90 | 269 | 3.0 | 8.0 | 0.00 | 0.00 | 0.00 | 22 | 1012.0 |
| 20260831220604 | 89 | 263 | 5.0 | 9.0 | 0.00 | 0.00 | 0.00 | 22 | 1012.1 |
| 20260831215104 | 89 | 275 | 5.0 | 8.0 | 0.00 | 0.00 | 0.00 | 24 | 1012.1 |
| 20260831214604 | 90 | 252 | 5.0 | 8.0 | 0.00 | 0.00 | 0.00 | 23 | 1012.1 |
| 20260831214104 | 89 | 271 | 4.0 | 12.0 | 0.00 | 0.00 | 0.00 | 24 | 1012.1 |
| 20260831212604 | 90 | 262 | 5.0 | 12.0 | 0.00 | 0.00 | 0.00 | 22 | 1012.3 |
| 20260831212103 | 89 | 276 | 4.0 | 12.0 | 0.00 | 0.00 | 0.00 | 22 | 1012.3 |
| 20260831211604 | 89 | 264 | 5.0 | 12.0 | 0.00 | 0.00 | 0.00 | 21 | 1012.6 |
| 20260831211104 | 89 | 274 | 3.0 | 8.0 | 0.00 | 0.00 | 0.00 | 21 | 1012.5 |
| 20260831210604 | 89 | 284 | 3.0 | 8.0 | 0.00 | 0.00 | 0.00 | 22 | 1012.6 |
| 20260831210106 | 89 | 270 | 3.0 | 9.0 | 0.00 | 0.00 | 0.00 | 21 | 1012.7 |
| 20260831205108 | 89 | 266 | 3.0 | 8.0 | 0.00 | 0.00 | 0.00 | 21 | 1012.7 |
| 20260831204604 | 88 | 265 | 5.0 | 7.0 | 0.00 | 0.00 | 0.00 | 20 | 1012.7 |
| 20260831204104 | 88 | 260 | 5.0 | 7.0 | 0.00 | 0.00 | 0.00 | 20 | 1012.7 |
| 20260831203604 | 89 | 280 | 4.0 | 9.0 | 0.00 | 0.00 | 0.00 | 22 | 1012.7 |
| 20260831202604 | 88 | 254 | 3.0 | 9.0 | 0.00 | 0.00 | 0.00 | 23 | 1012.6 |
| 20260831202104 | 88 | 276 | 5.0 | 7.0 | 0.00 | 0.00 | 0.00 | 23 | 1012.6 |
| 20260831201604 | 88 | 285 | 5.0 | 7.0 | 0.00 | 0.00 | 0.00 | 23 | 1012.6 |
| 20260831201104 | 88 | 265 | 3.0 | 7.0 | 0.00 | 0.00 | 0.00 | 24 | 1012.7 |
| 20260831200604 | 87 | 263 | 4.0 | 7.0 | 0.00 | 0.00 | 0.00 | 25 | 1012.7 |
| 20260831200104 | 87 | 287 | 5.0 | 8.0 | 0.00 | 0.00 | 0.00 | 24 | 1012.7 |
| 20260831195604 | 88 | 304 | 5.0 | 9.0 | 0.00 | 0.00 | 0.00 | 23 | 1012.8 |
| 20260831195104 | 88 | 243 | 3.0 | 9.0 | 0.00 | 0.00 | 0.00 | 21 | 1012.8 |
| 20260831194604 | 88 | 259 | 4.0 | 7.0 | 0.00 | 0.00 | 0.00 | 21 | 1012.8 |
| 20260831194105 | 88 | 273 | 4.0 | 7.0 | 0.00 | 0.00 | 0.00 | 22 | 1012.9 |
| 20260831193604 | 88 | 271 | 3.0 | 7.0 | 0.00 | 0.00 | 0.00 | 22 | 1012.9 |
| 20260831193104 | 87 | 221 | 4.0 | 9.0 | 0.00 | 0.00 | 0.00 | 21 | 1013.0 |
| 20260831192604 | 87 | 269 | 5.0 | 9.0 | 0.00 | 0.00 | 0.00 | 24 | 1013.0 |
| 20260831192104 | 86 | 281 | 3.0 | 7.0 | 0.00 | 0.00 | 0.00 | 27 | 1013.0 |
| 20260831191604 | 86 | 270 | 5.0 | 7.0 | 0.00 | 0.00 | 0.00 | 28 | 1013.1 |
| 20260831191104 | 85 | 298 | 4.0 | 7.0 | 0.00 | 0.00 | 0.00 | 26 | 1013.1 |
| 20260831190604 | 85 | 271 | 2.0 | 6.0 | 0.00 | 0.00 | 0.00 | 27 | 1013.1 |
| 20260831190106 | 85 | 273 | 5.0 | 6.0 | 0.00 | 0.00 | 0.00 | 29 | 1013.0 |
| 20260831185604 | 85 | 243 | 3.0 | 7.0 | 0.00 | 0.00 | 0.00 | 31 | 1013.1 |
| 20260831185107 | 84 | 281 | 3.0 | 7.0 | 0.00 | 0.00 | 0.00 | 31 | 1013.1 |
| 20260831184604 | 84 | 259 | 1.0 | 7.0 | 0.00 | 0.00 | 0.00 | 32 | 1013.1 |
| 20260831184103 | 84 | 268 | 2.0 | 5.0 | 0.00 | 0.00 | 0.00 | 32 | 1013.1 |
| 20260831183604 | 84 | 253 | 3.0 | 6.0 | 0.00 | 0.00 | 0.00 | 32 | 1013.2 |
| 20260831183103 | 83 | 291 | 2.0 | 7.0 | 0.00 | 0.00 | 0.00 | 32 | 1013.2 |
| 20260831182604 | 83 | 283 | 3.0 | 8.0 | 0.00 | 0.00 | 0.00 | 33 | 1013.2 |
| 20260831182106 | 83 | 297 | 3.0 | 8.0 | 0.00 | 0.00 | 0.00 | 35 | 1013.2 |
| 20260831181104 | 82 | 272 | 3.0 | 6.0 | 0.00 | 0.00 | 0.00 | 38 | 1013.1 |
| 20260831180604 | 81 | 283 | 3.0 | 6.0 | 0.00 | 0.00 | 0.00 | 38 | 1013.2 |
| 20260831180104 | 81 | 274 | 3.0 | 6.0 | 0.00 | 0.00 | 0.00 | 41 | 1013.1 |
| 20260831175104 | 80 | 286 | 2.0 | 6.0 | 0.00 | 0.00 | 0.00 | 43 | 1013.0 |
| 20260831174604 | 80 | 275 | 3.0 | 6.0 | 0.00 | 0.00 | 0.00 | 44 | 1013.0 |
| 20260831174104 | 80 | 280 | 3.0 | 5.0 | 0.00 | 0.00 | 0.00 | 43 | 1013.0 |
| 20260831173604 | 79 | 255 | 3.0 | 5.0 | 0.00 | 0.00 | 0.00 | 45 | 1013.0 |
| 20260831173103 | 79 | 260 | 2.0 | 5.0 | 0.00 | 0.00 | 0.00 | 45 | 1013.1 |
| 20260831172603 | 79 | 271 | 2.0 | 5.0 | 0.00 | 0.00 | 0.00 | 48 | 1013.1 |
| 20260831172104 | 78 | 279 | 3.0 | 5.0 | 0.00 | 0.00 | 0.00 | 46 | 1013.1 |
| 20260831171604 | 78 | 314 | 1.0 | 5.0 | 0.00 | 0.00 | 0.00 | 48 | 1013.1 |
| 20260831171104 | 77 | 311 | 2.0 | 3.0 | 0.00 | 0.00 | 0.00 | 49 | 1013.0 |
| 20260831170109 | 76 | 254 | 2.0 | 3.0 | 0.00 | 0.00 | 0.00 | 50 | 1012.9 |
| 20260831165604 | 76 | 274 | 2.0 | 3.0 | 0.00 | 0.00 | 0.00 | 49 | 1012.9 |
| 20260831165110 | 75 | 298 | 2.0 | 3.0 | 0.00 | 0.00 | 0.00 | 50 | 1012.8 |
| 20260831164604 | 75 | 270 | 2.0 | 3.0 | 0.00 | 0.00 | 0.00 | 49 | 1012.9 |
| 20260831164105 | 74 | 273 | 2.0 | 3.0 | 0.00 | 0.00 | 0.00 | 52 | 1012.9 |
| 20260831163604 | 74 | 275 | 2.0 | 3.0 | 0.00 | 0.00 | 0.00 | 53 | 1012.9 |
| 20260831163104 | 73 | 263 | 1.0 | 3.0 | 0.00 | 0.00 | 0.00 | 53 | 1012.9 |
| 20260831162604 | 73 | 261 | 1.0 | 3.0 | 0.00 | 0.00 | 0.00 | 50 | 1013.0 |
| 20260831162104 | 73 | 269 | 1.0 | 3.0 | 0.00 | 0.00 | 0.00 | 49 | 1013.0 |
| 20260831161604 | 72 | 269 | 1.0 | 3.0 | 0.00 | 0.00 | 0.00 | 48 | 1013.0 |
| 20260831160604 | 71 | 260 | 2.0 | 3.0 | 0.00 | 0.00 | 0.00 | 50 | 1012.9 |
| 20260831160104 | 71 | 270 | 2.0 | 3.0 | 0.00 | 0.00 | 0.00 | 50 | 1012.9 |
| 20260831155604 | 71 | 270 | 2.0 | 3.0 | 0.00 | 0.00 | 0.00 | 51 | 1012.8 |
| 20260831155104 | 70 | 272 | 2.0 | 3.0 | 0.00 | 0.00 | 0.00 | 51 | 1012.8 |
| 20260831154604 | 70 | 254 | 2.0 | 3.0 | 0.00 | 0.00 | 0.00 | 50 | 1012.9 |
| 20260831153604 | 69 | 194 | 2.0 | 3.0 | 0.00 | 0.00 | 0.00 | 54 | 1012.8 |
| 20260831153104 | 69 | 152 | 0.0 | 3.0 | 0.00 | 0.00 | 0.00 | 57 | 1012.7 |
| 20260831152104 | 68 | 148 | 1.0 | 3.0 | 0.00 | 0.00 | 0.00 | 60 | 1012.5 |
| 20260831151604 | 68 | 148 | 1.0 | 3.0 | 0.00 | 0.00 | 0.00 | 61 | 1012.5 |
| 20260831151104 | 68 | 148 | 1.0 | 2.0 | 0.00 | 0.00 | 0.00 | 61 | 1012.5 |
| 20260831150107 | 68 | 148 | 0.0 | 2.0 | 0.00 | 0.00 | 0.00 | 64 | 1012.4 |
| 20260831145603 | 68 | 148 | 1.0 | 2.0 | 0.00 | 0.00 | 0.00 | 63 | 1012.4 |
| 20260831143604 | 66 | 148 | 0.0 | 0.0 | 0.00 | 0.00 | 0.00 | 60 | 1012.4 |
| 20260831143104 | 66 | 148 | 0.0 | 0.0 | 0.00 | 0.00 | 0.00 | 60 | 1012.4 |
| 20260831142604 | 66 | 148 | 0.0 | 0.0 | 0.00 | 0.00 | 0.00 | 62 | 1012.4 |
| 20260831142104 | 65 | 148 | 0.0 | 0.0 | 0.00 | 0.00 | 0.00 | 65 | 1012.4 |
| 20260831141104 | 65 | 148 | 0.0 | 0.0 | 0.00 | 0.00 | 0.00 | 65 | 1012.3 |
| 20260831140606 | 65 | 148 | 0.0 | 0.0 | 0.00 | 0.00 | 0.00 | 64 | 1012.3 |
| 20260831140104 | 65 | 148 | 0.0 | 1.0 | 0.00 | 0.00 | 0.00 | 63 | 1012.2 |
| 20260831135605 | 65 | 148 | 0.0 | 1.0 | 0.00 | 0.00 | 0.00 | 62 | 1012.2 |
| 20260831135104 | 65 | 148 | 1.0 | 1.0 | 0.00 | 0.00 | 0.00 | 61 | 1012.1 |
| 20260831134604 | 65 | 148 | 0.0 | 2.0 | 0.00 | 0.00 | 0.00 | 58 | 1012.1 |
| 20260831134104 | 65 | 148 | 0.0 | 2.0 | 0.00 | 0.00 | 0.00 | 54 | 1012.0 |
| 20260831133604 | 64 | 148 | 1.0 | 3.0 | 0.00 | 0.00 | 0.00 | 54 | 1012.0 |
| 20260831133104 | 64 | 148 | 2.0 | 3.0 | 0.00 | 0.00 | 0.00 | 56 | 1011.9 |
| 20260831132604 | 64 | 148 | 0.0 | 2.0 | 0.00 | 0.00 | 0.00 | 59 | 1011.9 |
| 20260831132104 | 63 | 148 | 0.0 | 1.0 | 0.00 | 0.00 | 0.00 | 56 | 1012.0 |
| 20260831131604 | 64 | 148 | 0.0 | 2.0 | 0.00 | 0.00 | 0.00 | 53 | 1011.9 |
| 20260831131104 | 64 | 148 | 0.0 | 3.0 | 0.00 | 0.00 | 0.00 | 52 | 1011.9 |
| 20260831130606 | 63 | 148 | 1.0 | 3.0 | 0.00 | 0.00 | 0.00 | 52 | 1011.9 |
| 20260831130107 | 63 | 148 | 0.0 | 0.0 | 0.00 | 0.00 | 0.00 | 62 | 1011.8 |
| 20260831125604 | 64 | 148 | 0.0 | 0.0 | 0.00 | 0.00 | 0.00 | 68 | 1011.8 |
| 20260831125107 | 64 | 148 | 0.0 | 0.0 | 0.00 | 0.00 | 0.00 | 71 | 1011.8 |
| 20260831124604 | 64 | 148 | 0.0 | 0.0 | 0.00 | 0.00 | 0.00 | 71 | 1011.7 |
| 20260831123604 | 64 | 148 | 0.0 | 1.0 | 0.00 | 0.00 | 0.00 | 70 | 1011.7 |
| 20260831123104 | 65 | 148 | 0.0 | 1.0 | 0.00 | 0.00 | 0.00 | 70 | 1011.8 |
| 20260831122604 | 65 | 148 | 0.0 | 0.0 | 0.00 | 0.00 | 0.00 | 71 | 1011.7 |
| 20260831121104 | 65 | 148 | 0.0 | 1.0 | 0.00 | 0.00 | 0.00 | 71 | 1011.7 |
| 20260831120605 | 65 | 148 | 0.0 | 1.0 | 0.00 | 0.00 | 0.00 | 72 | 1011.7 |
| 20260831120104 | 66 | 148 | 1.0 | 1.0 | 0.00 | 0.00 | 0.00 | 72 | 1011.7 |
| 20260831114604 | 66 | 148 | 0.0 | 0.0 | 0.00 | 0.00 | 0.00 | 73 | 1011.6 |
| 20260831114104 | 67 | 148 | 0.0 | 0.0 | 0.00 | 0.00 | 0.00 | 72 | 1011.6 |
| 20260831113104 | 66 | 148 | 0.0 | 0.0 | 0.00 | 0.00 | 0.00 | 69 | 1011.6 |
| 20260831112604 | 66 | 148 | 0.0 | 0.0 | 0.00 | 0.00 | 0.00 | 66 | 1011.6 |
| 20260831112104 | 66 | 148 | 0.0 | 0.0 | 0.00 | 0.00 | 0.00 | 66 | 1011.6 |
| 20260831111604 | 67 | 148 | 0.0 | 0.0 | 0.00 | 0.00 | 0.00 | 66 | 1011.6 |
| 20260831111104 | 67 | 148 | 0.0 | 1.0 | 0.00 | 0.00 | 0.00 | 67 | 1011.6 |
| 20260831110604 | 67 | 148 | 0.0 | 1.0 | 0.00 | 0.00 | 0.00 | 66 | 1011.6 |
| 20260831110109 | 67 | 148 | 0.0 | 1.0 | 0.00 | 0.00 | 0.00 | 65 | 1011.7 |
| 20260831105604 | 67 | 148 | 0.0 | 1.0 | 0.00 | 0.00 | 0.00 | 64 | 1011.7 |
| 20260831105109 | 67 | 148 | 0.0 | 1.0 | 0.00 | 0.00 | 0.00 | 63 | 1011.7 |
| 20260831104104 | 67 | 148 | 0.0 | 1.0 | 0.00 | 0.00 | 0.00 | 65 | 1011.8 |
| 20260831103604 | 67 | 148 | 0.0 | 1.0 | 0.00 | 0.00 | 0.00 | 66 | 1011.7 |
| 20260831103104 | 67 | 148 | 0.0 | 1.0 | 0.00 | 0.00 | 0.00 | 66 | 1011.7 |
| 20260831102104 | 68 | 148 | 0.0 | 1.0 | 0.00 | 0.00 | 0.00 | 66 | 1011.7 |
| 20260831101604 | 68 | 148 | 0.0 | 0.0 | 0.00 | 0.00 | 0.00 | 66 | 1011.7 |
| 20260831101104 | 68 | 148 | 0.0 | 1.0 | 0.00 | 0.00 | 0.00 | 67 | 1011.7 |
| 20260831100605 | 68 | 148 | 0.0 | 1.0 | 0.00 | 0.00 | 0.00 | 67 | 1011.7 |
| 20260831100105 | 68 | 148 | 0.0 | 1.0 | 0.00 | 0.00 | 0.00 | 68 | 1011.7 |
| 20260831095604 | 68 | 148 | 0.0 | 1.0 | 0.00 | 0.00 | 0.00 | 68 | 1011.7 |
| 20260831095104 | 68 | 148 | 0.0 | 0.0 | 0.00 | 0.00 | 0.00 | 68 | 1011.7 |
| 20260831094104 | 68 | 148 | 0.0 | 0.0 | 0.00 | 0.00 | 0.00 | 66 | 1011.6 |
| 20260831093603 | 68 | 148 | 0.0 | 0.0 | 0.00 | 0.00 | 0.00 | 64 | 1011.6 |
| 20260831092604 | 69 | 148 | 0.0 | 1.0 | 0.00 | 0.00 | 0.00 | 63 | 1011.7 |
| 20260831091604 | 68 | 148 | 0.0 | 1.0 | 0.00 | 0.00 | 0.00 | 58 | 1011.7 |
| 20260831091104 | 69 | 148 | 0.0 | 1.0 | 0.00 | 0.00 | 0.00 | 59 | 1011.7 |
| 20260831090604 | 69 | 148 | 1.0 | 1.0 | 0.00 | 0.00 | 0.00 | 59 | 1011.7 |
| 20260831090106 | 69 | 148 | 1.0 | 2.0 | 0.00 | 0.00 | 0.00 | 54 | 1011.7 |
| 20260831085604 | 69 | 148 | 1.0 | 2.0 | 0.00 | 0.00 | 0.00 | 51 | 1011.7 |
| 20260831085108 | 69 | 148 | 1.0 | 2.0 | 0.00 | 0.00 | 0.00 | 51 | 1011.7 |
| 20260831084605 | 69 | 148 | 0.0 | 1.0 | 0.00 | 0.00 | 0.00 | 50 | 1011.9 |
| 20260831084104 | 69 | 148 | 0.0 | 1.0 | 0.00 | 0.00 | 0.00 | 50 | 1011.9 |
| 20260831083603 | 70 | 148 | 0.0 | 1.0 | 0.00 | 0.00 | 0.00 | 50 | 1012.1 |
| 20260831083104 | 70 | 148 | 0.0 | 1.0 | 0.00 | 0.00 | 0.00 | 49 | 1012.0 |
| 20260831082603 | 70 | 148 | 0.0 | 1.0 | 0.00 | 0.00 | 0.00 | 50 | 1012.1 |
| 20260831082104 | 70 | 148 | 0.0 | 1.0 | 0.00 | 0.00 | 0.00 | 50 | 1012.1 |
| 20260831081604 | 70 | 148 | 0.0 | 0.0 | 0.00 | 0.00 | 0.00 | 51 | 1012.2 |
| 20260831081104 | 70 | 148 | 0.0 | 0.0 | 0.00 | 0.00 | 0.00 | 49 | 1012.1 |
| 20260831080604 | 70 | 148 | 0.0 | 1.0 | 0.00 | 0.00 | 0.00 | 50 | 1012.1 |
| 20260831080105 | 70 | 148 | 0.0 | 1.0 | 0.00 | 0.00 | 0.00 | 51 | 1012.0 |
| 20260831075603 | 70 | 148 | 0.0 | 1.0 | 0.00 | 0.00 | 0.00 | 52 | 1012.1 |
| 20260831075104 | 70 | 148 | 0.0 | 1.0 | 0.00 | 0.00 | 0.00 | 53 | 1012.1 |
| 20260831074604 | 71 | 148 | 0.0 | 1.0 | 0.00 | 0.00 | 0.00 | 53 | 1012.1 |
| 20260831074103 | 71 | 148 | 0.0 | 1.0 | 0.00 | 0.00 | 0.00 | 53 | 1012.0 |
| 20260831073604 | 71 | 148 | 0.0 | 1.0 | 0.00 | 0.00 | 0.00 | 52 | 1012.1 |
| 20260831072604 | 71 | 148 | 0.0 | 1.0 | 0.00 | 0.00 | 0.00 | 53 | 1012.0 |
| 20260831072104 | 72 | 148 | 0.0 | 0.0 | 0.00 | 0.00 | 0.00 | 54 | 1011.9 |
| 20260831071604 | 72 | 148 | 0.0 | 1.0 | 0.00 | 0.00 | 0.00 | 53 | 1011.9 |
| 20260831071104 | 72 | 148 | 0.0 | 1.0 | 0.00 | 0.00 | 0.00 | 51 | 1012.0 |
| 20260831070603 | 72 | 148 | 0.0 | 1.0 | 0.00 | 0.00 | 0.00 | 50 | 1012.1 |
| 20260831070107 | 72 | 148 | 0.0 | 1.0 | 0.00 | 0.00 | 0.00 | 52 | 1012.0 |
| 20260831065604 | 72 | 148 | 0.0 | 0.0 | 0.00 | 0.00 | 0.00 | 54 | 1011.9 |
| 20260831065107 | 73 | 148 | 0.0 | 0.0 | 0.00 | 0.00 | 0.00 | 54 | 1012.0 |
| 20260831064604 | 73 | 148 | 0.0 | 0.0 | 0.00 | 0.00 | 0.00 | 55 | 1012.0 |
| 20260831064104 | 73 | 148 | 0.0 | 0.0 | 0.00 | 0.00 | 0.00 | 54 | 1012.0 |
| 20260831063603 | 73 | 148 | 0.0 | 0.0 | 0.00 | 0.00 | 0.00 | 54 | 1012.0 |
| 20260831063103 | 73 | 148 | 0.0 | 0.0 | 0.00 | 0.00 | 0.00 | 54 | 1012.0 |
| 20260831062603 | 73 | 148 | 0.0 | 0.0 | 0.00 | 0.00 | 0.00 | 53 | 1011.9 |
| 20260831062104 | 73 | 148 | 0.0 | 0.0 | 0.00 | 0.00 | 0.00 | 53 | 1011.9 |
| 20260831061104 | 73 | 148 | 0.0 | 0.0 | 0.00 | 0.00 | 0.00 | 50 | 1011.8 |
| 20260831060604 | 74 | 148 | 0.0 | 0.0 | 0.00 | 0.00 | 0.00 | 49 | 1011.8 |
| 20260831055604 | 74 | 148 | 0.0 | 0.0 | 0.00 | 0.00 | 0.00 | 47 | 1011.8 |
| 20260831055104 | 74 | 148 | 0.0 | 0.0 | 0.00 | 0.00 | 0.00 | 46 | 1011.7 |
| 20260831054603 | 75 | 148 | 0.0 | 0.0 | 0.00 | 0.00 | 0.00 | 45 | 1011.7 |
| 20260831054104 | 75 | 148 | 0.0 | 0.0 | 0.00 | 0.00 | 0.00 | 44 | 1011.8 |
| 20260831053604 | 75 | 148 | 0.0 | 0.0 | 0.00 | 0.00 | 0.00 | 44 | 1011.8 |
| 20260831053104 | 76 | 148 | 0.0 | 0.0 | 0.00 | 0.00 | 0.00 | 43 | 1011.8 |
| 20260831052603 | 76 | 148 | 0.0 | 2.0 | 0.00 | 0.00 | 0.00 | 44 | 1011.9 |
| 20260831052104 | 76 | 148 | 0.0 | 3.0 | 0.00 | 0.00 | 0.00 | 44 | 1011.8 |
| 20260831051104 | 76 | 148 | 0.0 | 2.0 | 0.00 | 0.00 | 0.00 | 42 | 1011.8 |
| 20260831050604 | 76 | 148 | 0.0 | 3.0 | 0.00 | 0.00 | 0.00 | 41 | 1011.7 |
| 20260831050106 | 77 | 148 | 1.0 | 3.0 | 0.00 | 0.00 | 0.00 | 40 | 1011.7 |
| 20260831045604 | 77 | 158 | 1.0 | 3.0 | 0.00 | 0.00 | 0.00 | 39 | 1011.6 |
| 20260831045109 | 77 | 177 | 1.0 | 3.0 | 0.00 | 0.00 | 0.00 | 39 | 1011.6 |
| 20260831044104 | 78 | 181 | 1.0 | 2.0 | 0.00 | 0.00 | 0.00 | 37 | 1011.6 |
| 20260831043604 | 78 | 182 | 1.0 | 2.0 | 0.00 | 0.00 | 0.00 | 36 | 1011.5 |
| 20260831043104 | 78 | 182 | 1.0 | 2.0 | 0.00 | 0.00 | 0.00 | 36 | 1011.5 |
| 20260831042604 | 78 | 182 | 1.0 | 2.0 | 0.00 | 0.00 | 0.00 | 35 | 1011.5 |
| 20260831042104 | 79 | 182 | 0.0 | 2.0 | 0.00 | 0.00 | 0.00 | 35 | 1011.5 |
| 20260831041604 | 79 | 182 | 0.0 | 1.0 | 0.00 | 0.00 | 0.00 | 35 | 1011.5 |
| 20260831040604 | 79 | 182 | 0.0 | 1.0 | 0.00 | 0.00 | 0.00 | 35 | 1011.4 |
| 20260831040104 | 79 | 182 | 0.0 | 1.0 | 0.00 | 0.00 | 0.00 | 35 | 1011.4 |
| 20260831035109 | 79 | 182 | 0.0 | 1.0 | 0.00 | 0.00 | 0.00 | 35 | 1011.1 |
| 20260831033104 | 80 | 182 | 0.0 | 2.0 | 0.00 | 0.00 | 0.00 | 35 | 1010.9 |
| 20260831032604 | 80 | 182 | 0.0 | 2.0 | 0.00 | 0.00 | 0.00 | 34 | 1010.9 |
| 20260831032103 | 80 | 181 | 1.0 | 2.0 | 0.00 | 0.00 | 0.00 | 34 | 1010.9 |
| 20260831031604 | 80 | 178 | 0.0 | 2.0 | 0.00 | 0.00 | 0.00 | 34 | 1010.8 |
| 20260831031106 | 81 | 178 | 0.0 | 1.0 | 0.00 | 0.00 | 0.00 | 34 | 1010.7 |
| 20260831030105 | 81 | 178 | 0.0 | 3.0 | 0.00 | 0.00 | 0.00 | 33 | 1010.6 |
| 20260831025604 | 81 | 178 | 0.0 | 3.0 | 0.00 | 0.00 | 0.00 | 32 | 1010.6 |
| 20260831025110 | 82 | 183 | 1.0 | 3.0 | 0.00 | 0.00 | 0.00 | 32 | 1010.5 |
| 20260831024604 | 82 | 186 | 0.0 | 5.0 | 0.00 | 0.00 | 0.00 | 32 | 1010.4 |
| 20260831024104 | 82 | 182 | 1.0 | 5.0 | 0.00 | 0.00 | 0.00 | 31 | 1010.4 |
| 20260831023104 | 83 | 163 | 0.0 | 5.0 | 0.00 | 0.00 | 0.00 | 32 | 1010.4 |
| 20260831022604 | 83 | 206 | 2.0 | 5.0 | 0.00 | 0.00 | 0.00 | 31 | 1010.3 |
| 20260831022104 | 83 | 167 | 1.0 | 6.0 | 0.00 | 0.00 | 0.00 | 31 | 1010.3 |
| 20260831020603 | 85 | 174 | 3.0 | 6.0 | 0.00 | 0.00 | 0.00 | 31 | 1010.3 |
| 20260831020105 | 85 | 197 | 3.0 | 5.0 | 0.00 | 0.00 | 0.00 | 30 | 1010.1 |
| 20260831015603 | 86 | 253 | 1.0 | 6.0 | 0.00 | 0.00 | 0.00 | 31 | 1010.1 |
| 20260831015104 | 86 | 254 | 2.0 | 6.0 | 0.00 | 0.00 | 0.00 | 31 | 1010.1 |
| 20260831014604 | 86 | 234 | 5.0 | 7.0 | 0.00 | 0.00 | 0.00 | 30 | 1010.0 |
| 20260831014104 | 87 | 247 | 3.0 | 8.0 | 0.00 | 0.00 | 0.00 | 30 | 1010.0 |
| 20260831013104 | 88 | 246 | 6.0 | 9.0 | 0.00 | 0.00 | 0.00 | 30 | 1010.2 |
| 20260831012104 | 89 | 262 | 5.0 | 10.0 | 0.00 | 0.00 | 0.00 | 29 | 1010.1 |
| 20260831011603 | 89 | 227 | 2.0 | 10.0 | 0.00 | 0.00 | 0.00 | 28 | 1010.0 |
| 20260831011104 | 89 | 248 | 4.0 | 10.0 | 0.00 | 0.00 | 0.00 | 27 | 1010.0 |
| 20260831010604 | 89 | 231 | 4.0 | 13.0 | 0.00 | 0.00 | 0.00 | 28 | 1010.0 |
| 20260831010107 | 89 | 249 | 5.0 | 13.0 | 0.00 | 0.00 | 0.00 | 28 | 1009.9 |
| 20260831005604 | 90 | 253 | 7.0 | 12.0 | 0.00 | 0.00 | 0.00 | 27 | 1009.9 |
| 20260831005109 | 90 | 239 | 4.0 | 12.0 | 0.00 | 0.00 | 0.00 | 28 | 1009.9 |
| 20260831003604 | 91 | 253 | 7.0 | 12.0 | 0.00 | 0.00 | 0.00 | 27 | 1009.7 |
| 20260831003104 | 91 | 215 | 6.0 | 13.0 | 0.00 | 0.00 | 0.00 | 26 | 1009.7 |
| 20260831002604 | 91 | 248 | 8.0 | 13.0 | 0.00 | 0.00 | 0.00 | 26 | 1009.7 |
| 20260831002104 | 92 | 250 | 6.0 | 12.0 | 0.00 | 0.00 | 0.00 | 26 | 1009.7 |
| 20260831001604 | 92 | 243 | 6.0 | 12.0 | 0.00 | 0.00 | 0.00 | 26 | 1009.7 |
| 20260831001103 | 92 | 227 | 6.0 | 12.0 | 0.00 | 0.00 | 0.00 | 26 | 1009.6 |
| 20260831000104 | 92 | 235 | 7.0 | 13.0 | 0.00 | 0.00 | 0.00 | 25 | 1009.6 |
| 20260830235604 | 93 | 260 | 6.0 | 12.0 | 0.00 | 0.00 | 0.00 | 26 | 1009.6 |
| 20260830234104 | 93 | 249 | 7.0 | 12.0 | 0.00 | 0.00 | 0.00 | 24 | 1009.6 |
| 20260830233604 | 93 | 239 | 6.0 | 14.0 | 0.00 | 0.00 | 0.00 | 26 | 1009.6 |
| 20260830232104 | 94 | 223 | 7.0 | 12.0 | 0.00 | 0.00 | 0.00 | 26 | 1009.6 |
| 20260830231604 | 95 | 240 | 5.0 | 12.0 | 0.00 | 0.00 | 0.00 | 26 | 1009.6 |
| 20260830231104 | 94 | 261 | 6.0 | 12.0 | 0.00 | 0.00 | 0.00 | 24 | 1009.5 |
| 20260830230603 | 95 | 269 | 6.0 | 12.0 | 0.00 | 0.00 | 0.00 | 23 | 1009.6 |
| 20260830230106 | 95 | 257 | 3.0 | 12.0 | 0.00 | 0.00 | 0.00 | 23 | 1009.6 |
| 20260830225604 | 95 | 258 | 6.0 | 12.0 | 0.00 | 0.00 | 0.00 | 22 | 1009.6 |
| 20260830224604 | 95 | 259 | 4.0 | 10.0 | 0.00 | 0.00 | 0.00 | 23 | 1009.6 |
| 20260830223604 | 95 | 265 | 7.0 | 13.0 | 0.00 | 0.00 | 0.00 | 24 | 1009.7 |
| 20260830223104 | 95 | 265 | 7.0 | 10.0 | 0.00 | 0.00 | 0.00 | 24 | 1009.7 |